Weather History for Mountain Home, ID

Change the Weather History Date:

Wednesday, August 13, 2014

  Actual Average Record
Temperature  
Mean Temperature 73 °F 76 °F  
Max Temperature 86 °F 93 °F 105 °F (1992)
Min Temperature 60 °F 57 °F 34 °F (1918)
Degree Days  
Heating Degree Days 0 0  
Month to date heating degree days 0 0  
Cooling Degree Days 8 11  
Month to date cooling degree days 161 156  
Growing Degree Days 22 (Base 50)    
Moisture  
Dew Point 60 °F    
Average Humidity 67    
Maximum Humidity 100    
Minimum Humidity 35    
Precipitation  
Precipitation 0.02 in 0.01 in 0.25 in (1979)
Month to date precipitation 0.38 0.06  
Sea Level Pressure  
Sea Level Pressure 29.92 in    
Wind  
Wind Speed 8 mph (SE)    
Max Wind Speed 17 mph    
Max Gust Speed -    
Visibility 10 miles    
Events Rain , Thunderstorm    
T = Trace of Precipitation, MM = Missing Value Source: NWS Daily Summary

Daily Weather History Graph

Daily Weather History Graph

Search for Another Location

Airport:

Trip Planner

Search our weather history database for the weather conditions in past years. The results will help you decide how hot, cold, wet, or windy it might be!

Date:

Astronomy

Aug. 13, 2014 Rise Set
Actual Time 6:47 AM MDT 8:48 PM MDT
Civil Twilight 6:16 AM MDT 9:19 PM MDT
Nautical Twilight 5:38 AM MDT 9:57 PM MDT
Astronomical Twilight 4:56 AM MDT 10:38 PM MDT
Moon 10:28 PM MDT (8/13) 10:27 AM MDT (8/13)
Length of Visible Light 15h 03m
Length of Day
14h 01m
Waning Gibbous, 87% of the Moon is Illuminated
Aug 13
Waning Gibbous
Aug 17
Last Quarter
Aug 25
New
Sep 2
First Quarter
Sep 8
Full

Hourly Weather History & Observations

Time (MDT) Temp. Heat Index Dew Point Humidity Pressure Visibility Wind Dir Wind Speed Gust Speed Precip Events Conditions
12:58 AM 64.2 °F - 58.8 °F 83% 29.92 in 10.0 mi NE 5.8 mph - N/A   Clear
1:58 AM 63.9 °F - 62.1 °F 94% 29.90 in 10.0 mi ENE 3.5 mph - N/A   Clear
2:58 AM 63.7 °F - 62.4 °F 96% 29.92 in 10.0 mi ENE 5.8 mph - N/A   Clear
3:58 AM 63.3 °F - 60.8 °F 91% 29.91 in 10.0 mi ENE 6.9 mph - N/A   Scattered Clouds
4:58 AM 63.1 °F - 61.2 °F 93% 29.91 in 10.0 mi SE 10.4 mph - N/A   Clear
5:58 AM 64.6 °F - 59.9 °F 85% 29.91 in 10.0 mi ESE 11.5 mph - N/A   Clear
6:58 AM 60.6 °F - 60.6 °F 100% 29.92 in 10.0 mi SSW 3.5 mph - N/A   Clear
7:58 AM 66.7 °F - 60.4 °F 80% 29.92 in 10.0 mi SE 5.8 mph - N/A   Clear
8:58 AM 70.7 °F - 58.6 °F 66% 29.93 in 10.0 mi SSE 12.7 mph - N/A   Clear
9:58 AM 74.5 °F - 57.6 °F 55% 29.94 in 10.0 mi SSE 17.3 mph - N/A   Scattered Clouds
10:10 AM 71.6 °F - 57.2 °F 60% 30.00 in 10.0 mi SSE 13.8 mph - N/A Rain Light Rain
10:18 AM 69.8 °F - 60.8 °F 73% 30.00 in 5.0 mi SE 16.1 mph - N/A Rain , Thunderstorm Light Thunderstorms and Rain
10:19 AM 69.8 °F - 60.8 °F 73% 30.00 in 5.0 mi SE 16.1 mph - N/A Rain , Thunderstorm Light Thunderstorms and Rain
10:37 AM 68.0 °F - 62.6 °F 83% 30.01 in 8.0 mi South 4.6 mph - N/A Rain , Thunderstorm Light Thunderstorms and Rain
10:44 AM 69.8 °F - 62.6 °F 78% 30.02 in 10.0 mi SSW 6.9 mph - N/A Thunderstorm Mostly Cloudy
10:49 AM 69.8 °F - 62.6 °F 78% 30.02 in 10.0 mi South 6.9 mph - N/A Thunderstorm Mostly Cloudy
10:58 AM 71.1 °F - 63.5 °F 77% 29.95 in 10.0 mi SE 9.2 mph - 0.02 in   Mostly Cloudy
11:58 AM 78.6 °F - 55.8 °F 45% 29.93 in 10.0 mi SSE 5.8 mph - N/A   Mostly Cloudy
12:58 PM 80.6 °F 80.7 °F 57.0 °F 44% 29.90 in 10.0 mi SE 5.8 mph - N/A   Scattered Clouds
1:58 PM 84.2 °F 83.2 °F 56.1 °F 38% 29.86 in 10.0 mi East 9.2 mph - N/A   Scattered Clouds
2:58 PM 84.6 °F 83.1 °F 54.1 °F 35% 29.85 in 10.0 mi SSE 4.6 mph - N/A   Mostly Cloudy
3:39 PM 84.2 °F 82.8 °F 53.6 °F 35% 29.90 in 10.0 mi ESE 10.4 mph - N/A Rain , Thunderstorm Light Thunderstorms and Rain
3:58 PM 82.4 °F 81.9 °F 56.7 °F 41% 29.84 in 10.0 mi SSE 12.7 mph - 0.00 in Rain , Thunderstorm Light Thunderstorms and Rain
4:25 PM 77.0 °F - 62.6 °F 61% 29.91 in 10.0 mi West 11.5 mph - N/A Thunderstorm Mostly Cloudy
4:58 PM 77.4 °F - 59.7 °F 54% 29.83 in 10.0 mi Variable 6.9 mph - 0.00 in Rain Light Rain
5:58 PM 80.2 °F 81.3 °F 61.9 °F 53% 29.85 in 10.0 mi NNW 13.8 mph - 0.00 in   Scattered Clouds
7:58 PM 80.2 °F 80.7 °F 58.1 °F 47% 29.80 in 10.0 mi NE 5.8 mph - N/A   Scattered Clouds
10:23 PM 73.4 °F - 60.8 °F 65% 29.92 in 10.0 mi North 12.7 mph - N/A   Partly Cloudy
10:58 PM 71.4 °F - 60.6 °F 69% 29.88 in 10.0 mi NNE 4.6 mph - N/A   Clear
11:58 PM 69.1 °F - 59.5 °F 72% 29.86 in 10.0 mi SSE 6.9 mph - N/A   Partly Cloudy